Time,TemperatureF,DewpointF,PressureIn,WindDirection,WindDirectionDegrees,WindSpeedMPH,WindSpeedGustMPH,Humidity,HourlyPrecipIn,Conditions,Clouds,dailyrainin,SoftwareType,DateUTC
2013-10-03 00:03:00,57.6,54.7,29.85,North,-999,-999.0,5.0,90,0.02,,,0.16,meteohub,2013-10-03 05:03:00,
2013-10-03 00:04:00,57.6,54.7,29.85,North,-999,-999.0,5.0,90,0.02,,,0.16,meteohub,2013-10-03 05:04:00,
2013-10-03 00:05:00,57.6,55.2,29.85,North,-999,-999.0,-999.0,92,-99.99,,,0.18,meteohub,2013-10-03 05:05:00,
2013-10-03 00:06:00,57.6,54.3,29.85,North,-999,-999.0,-999.0,89,-99.99,,,0.18,meteohub,2013-10-03 05:06:00,
2013-10-03 00:09:00,57.6,54.3,29.85,SW,222,0.0,-999.0,89,-99.99,,,0.18,meteohub,2013-10-03 05:09:00,
2013-10-03 00:14:00,57.6,55.2,29.80,SW,221,0.0,1.0,92,0.12,,,0.31,meteohub,2013-10-03 05:14:00,
2013-10-03 00:19:00,57.6,54.7,29.78,South,181,0.0,3.0,90,0.13,,,0.33,meteohub,2013-10-03 05:19:00,
2013-10-03 00:24:00,57.6,54.7,29.79,NE,53,4.0,4.0,90,0.07,,,0.33,meteohub,2013-10-03 05:24:00,
2013-10-03 00:29:00,57.6,54.7,29.82,NW,314,0.0,11.0,90,0.08,,,0.35,meteohub,2013-10-03 05:29:00,
2013-10-03 00:35:00,57.6,54.7,29.82,SW,219,0.0,11.0,90,0.08,,,0.35,meteohub,2013-10-03 05:35:00,
2013-10-03 00:40:00,57.6,54.7,29.83,SW,219,0.0,11.0,90,0.04,,,0.35,meteohub,2013-10-03 05:40:00,
2013-10-03 00:45:00,57.6,54.7,29.82,SW,219,0.0,2.0,90,0.04,,,0.35,meteohub,2013-10-03 05:45:00,
2013-10-03 00:50:00,57.7,54.9,29.81,SW,219,0.0,1.0,90,0.04,,,0.35,meteohub,2013-10-03 05:50:00,
2013-10-03 00:55:00,57.7,55.2,29.82,SW,219,0.0,0.0,91,0.04,,,0.35,meteohub,2013-10-03 05:55:00,
2013-10-03 01:00:00,57.7,54.9,29.82,SW,219,0.0,0.0,90,0.04,,,0.35,meteohub,2013-10-03 06:00:00,
2013-10-03 01:05:00,57.6,55.0,29.83,SW,219,0.0,0.0,91,0.04,,,0.35,meteohub,2013-10-03 06:05:00,
2013-10-03 01:10:00,57.6,55.0,29.83,SW,218,0.0,0.0,91,0.03,,,0.35,meteohub,2013-10-03 06:10:00,
2013-10-03 01:15:00,57.6,55.0,29.83,SW,218,0.0,0.0,91,0.01,,,0.35,meteohub,2013-10-03 06:15:00,
2013-10-03 01:20:00,57.6,55.0,29.83,SW,219,0.0,1.0,91,0.00,,,0.35,meteohub,2013-10-03 06:20:00,
2013-10-03 01:25:00,57.6,55.0,29.83,SW,219,0.0,1.0,91,0.00,,,0.35,meteohub,2013-10-03 06:25:00,
2013-10-03 01:30:00,57.6,55.0,29.82,SW,218,0.0,1.0,91,0.00,,,0.35,meteohub,2013-10-03 06:30:00,
2013-10-03 01:36:00,57.6,55.0,29.82,SW,219,0.0,0.0,91,0.00,,,0.35,meteohub,2013-10-03 06:36:00,
2013-10-03 01:41:00,57.6,55.0,29.82,SW,219,0.0,0.0,91,0.00,,,0.35,meteohub,2013-10-03 06:41:00,
2013-10-03 01:46:00,57.6,55.0,29.82,SW,218,0.0,0.0,91,0.00,,,0.35,meteohub,2013-10-03 06:46:00,
2013-10-03 01:51:00,57.6,55.0,29.83,SW,219,0.0,0.0,91,0.00,,,0.35,meteohub,2013-10-03 06:51:00,
2013-10-03 01:56:00,57.7,55.2,29.83,SW,219,0.0,0.0,91,0.00,,,0.35,meteohub,2013-10-03 06:56:00,
2013-10-03 02:01:00,57.7,55.2,29.83,SW,219,0.0,0.0,91,0.00,,,0.35,meteohub,2013-10-03 07:01:00,
2013-10-03 02:06:00,57.7,55.2,29.83,SW,218,0.0,0.0,91,0.00,,,0.35,meteohub,2013-10-03 07:06:00,
2013-10-03 02:11:00,57.7,55.2,29.83,SW,219,0.0,0.0,91,0.00,,,0.35,meteohub,2013-10-03 07:11:00,
2013-10-03 02:16:00,57.7,55.2,29.83,SW,219,0.0,0.0,91,0.00,,,0.35,meteohub,2013-10-03 07:16:00,
2013-10-03 02:21:00,57.7,55.2,29.83,SW,218,0.0,0.0,91,0.00,,,0.35,meteohub,2013-10-03 07:21:00,
2013-10-03 02:26:00,57.7,55.2,29.84,SW,219,0.0,0.0,91,0.00,,,0.35,meteohub,2013-10-03 07:26:00,
2013-10-03 02:31:00,57.7,55.2,29.84,SW,218,0.0,0.0,91,0.00,,,0.35,meteohub,2013-10-03 07:31:00,
2013-10-03 02:36:00,57.7,55.2,29.83,SW,218,0.0,0.0,91,0.00,,,0.35,meteohub,2013-10-03 07:36:00,
2013-10-03 02:41:00,57.7,55.2,29.83,SW,219,0.0,0.0,91,0.00,,,0.35,meteohub,2013-10-03 07:41:00,
2013-10-03 02:47:00,57.9,55.2,29.83,SW,218,0.0,0.0,91,0.00,,,0.35,meteohub,2013-10-03 07:47:00,
2013-10-03 02:52:00,57.9,55.2,29.83,SW,219,0.0,0.0,91,0.00,,,0.35,meteohub,2013-10-03 07:52:00,
2013-10-03 02:57:00,57.9,55.2,29.83,SW,219,0.0,0.0,91,0.00,,,0.35,meteohub,2013-10-03 07:57:00,
2013-10-03 03:02:00,57.9,55.2,29.83,SW,218,0.0,0.0,91,0.00,,,0.35,meteohub,2013-10-03 08:02:00,
2013-10-03 03:07:00,57.9,55.2,29.83,SW,219,0.0,0.0,91,0.00,,,0.35,meteohub,2013-10-03 08:07:00,
2013-10-03 03:12:00,57.9,55.2,29.83,SW,219,0.0,0.0,91,0.00,,,0.35,meteohub,2013-10-03 08:12:00,
2013-10-03 03:17:00,57.9,55.6,29.83,SW,219,0.0,0.0,92,0.00,,,0.35,meteohub,2013-10-03 08:17:00,
2013-10-03 03:22:00,58.1,55.8,29.83,SW,218,0.0,0.0,92,0.00,,,0.35,meteohub,2013-10-03 08:22:00,
2013-10-03 03:27:00,58.1,55.8,29.83,SW,219,0.0,0.0,92,0.00,,,0.35,meteohub,2013-10-03 08:27:00,
2013-10-03 03:32:00,58.3,55.9,29.83,SW,219,0.0,0.0,92,0.00,,,0.35,meteohub,2013-10-03 08:32:00,
2013-10-03 03:37:00,58.3,55.9,29.83,SW,218,0.0,0.0,92,0.00,,,0.35,meteohub,2013-10-03 08:37:00,
2013-10-03 03:42:00,58.3,55.9,29.83,SW,219,0.0,0.0,92,0.00,,,0.35,meteohub,2013-10-03 08:42:00,
2013-10-03 03:47:00,58.3,55.9,29.83,SW,219,0.0,0.0,92,0.00,,,0.35,meteohub,2013-10-03 08:47:00,
2013-10-03 03:52:00,58.3,55.9,29.83,SW,219,0.0,0.0,92,0.00,,,0.35,meteohub,2013-10-03 08:52:00,
2013-10-03 03:57:00,58.3,55.9,29.82,SW,218,0.0,0.0,92,0.00,,,0.35,meteohub,2013-10-03 08:57:00,
2013-10-03 04:02:00,58.3,55.9,29.82,SW,219,0.0,0.0,92,0.00,,,0.35,meteohub,2013-10-03 09:02:00,
2013-10-03 04:07:00,58.3,55.9,29.83,SW,219,0.0,0.0,92,0.00,,,0.35,meteohub,2013-10-03 09:07:00,
2013-10-03 04:12:00,58.3,55.9,29.83,SW,219,0.0,0.0,92,0.00,,,0.35,meteohub,2013-10-03 09:12:00,
2013-10-03 04:17:00,58.3,55.9,29.83,SW,218,0.0,0.0,92,0.00,,,0.35,meteohub,2013-10-03 09:17:00,
2013-10-03 04:22:00,58.3,55.9,29.83,SW,219,0.0,0.0,92,0.00,,,0.35,meteohub,2013-10-03 09:22:00,
2013-10-03 04:27:00,58.3,55.9,29.82,SW,219,0.0,0.0,92,0.00,,,0.35,meteohub,2013-10-03 09:27:00,
2013-10-03 04:32:00,58.3,55.9,29.82,SW,218,0.0,0.0,92,0.00,,,0.35,meteohub,2013-10-03 09:32:00,
2013-10-03 04:37:00,58.3,55.9,29.82,SW,218,0.0,0.0,92,0.00,,,0.35,meteohub,2013-10-03 09:37:00,
2013-10-03 04:42:00,58.3,55.9,29.83,SW,219,0.0,0.0,92,0.00,,,0.35,meteohub,2013-10-03 09:42:00,
2013-10-03 04:47:00,58.3,55.9,29.83,SW,219,0.0,1.0,92,0.00,,,0.35,meteohub,2013-10-03 09:47:00,
2013-10-03 04:52:00,58.3,55.9,29.83,SW,218,0.0,1.0,92,0.00,,,0.35,meteohub,2013-10-03 09:52:00,
2013-10-03 04:57:00,58.3,55.9,29.83,SW,219,0.0,1.0,92,0.00,,,0.35,meteohub,2013-10-03 09:57:00,
2013-10-03 05:02:00,58.3,55.9,29.83,SW,219,0.0,0.0,92,0.00,,,0.35,meteohub,2013-10-03 10:02:00,
2013-10-03 05:07:00,58.5,56.1,29.83,SW,219,0.0,0.0,92,0.00,,,0.35,meteohub,2013-10-03 10:07:00,
2013-10-03 05:12:00,58.5,56.1,29.82,SW,219,0.0,0.0,92,0.00,,,0.35,meteohub,2013-10-03 10:12:00,
2013-10-03 05:17:00,58.5,56.1,29.82,SW,218,0.0,0.0,92,0.00,,,0.35,meteohub,2013-10-03 10:17:00,
2013-10-03 05:22:00,58.5,56.1,29.82,SW,219,0.0,0.0,92,0.00,,,0.35,meteohub,2013-10-03 10:22:00,
2013-10-03 05:27:00,58.5,56.1,29.83,SW,218,0.0,0.0,92,0.00,,,0.35,meteohub,2013-10-03 10:27:00,
2013-10-03 05:32:00,58.5,56.1,29.82,SW,219,0.0,0.0,92,0.00,,,0.35,meteohub,2013-10-03 10:32:00,
2013-10-03 05:37:00,58.5,56.1,29.82,SW,219,0.0,0.0,92,0.00,,,0.35,meteohub,2013-10-03 10:37:00,
2013-10-03 05:42:00,58.3,55.9,29.83,SW,219,0.0,0.0,92,0.00,,,0.35,meteohub,2013-10-03 10:42:00,
2013-10-03 05:47:00,58.3,55.9,29.83,SW,219,0.0,0.0,92,0.00,,,0.35,meteohub,2013-10-03 10:47:00,
2013-10-03 05:52:00,58.3,55.9,29.83,SW,218,0.0,0.0,92,0.00,,,0.35,meteohub,2013-10-03 10:52:00,
2013-10-03 05:57:00,58.3,55.9,29.83,SW,219,0.0,0.0,92,0.00,,,0.35,meteohub,2013-10-03 10:57:00,
2013-10-03 06:02:00,58.3,55.9,29.83,SW,219,0.0,0.0,92,0.00,,,0.35,meteohub,2013-10-03 11:02:00,
2013-10-03 06:07:00,58.3,55.9,29.83,SW,218,0.0,0.0,92,0.00,,,0.35,meteohub,2013-10-03 11:07:00,
2013-10-03 06:12:00,58.3,55.9,29.83,SW,218,0.0,0.0,92,0.00,,,0.35,meteohub,2013-10-03 11:12:00,
2013-10-03 06:18:00,58.3,56.3,29.84,SW,219,0.0,0.0,93,0.00,,,0.35,meteohub,2013-10-03 11:18:00,
2013-10-03 06:23:00,58.3,56.3,29.83,SW,218,0.0,0.0,93,0.00,,,0.35,meteohub,2013-10-03 11:23:00,
2013-10-03 06:28:00,58.3,56.3,29.84,SW,219,0.0,0.0,93,0.00,,,0.35,meteohub,2013-10-03 11:28:00,
2013-10-03 06:33:00,58.3,56.3,29.83,SW,219,0.0,0.0,93,0.00,,,0.35,meteohub,2013-10-03 11:33:00,
2013-10-03 06:38:00,58.3,56.3,29.83,SW,218,0.0,0.0,93,0.00,,,0.35,meteohub,2013-10-03 11:38:00,
2013-10-03 06:43:00,58.3,56.3,29.83,SW,219,0.0,0.0,93,0.00,,,0.35,meteohub,2013-10-03 11:43:00,
2013-10-03 06:48:00,58.5,56.5,29.83,SW,219,0.0,0.0,93,0.00,,,0.35,meteohub,2013-10-03 11:48:00,
2013-10-03 06:53:00,58.5,56.5,29.83,SW,219,0.0,0.0,93,0.00,,,0.35,meteohub,2013-10-03 11:53:00,
2013-10-03 06:58:00,58.3,56.3,29.84,SW,219,0.0,0.0,93,0.00,,,0.35,meteohub,2013-10-03 11:58:00,
2013-10-03 07:03:00,58.5,56.5,29.84,SW,219,0.0,0.0,93,0.00,,,0.35,meteohub,2013-10-03 12:03:00,
2013-10-03 07:08:00,58.5,56.5,29.84,SW,219,0.0,1.0,93,0.00,,,0.35,meteohub,2013-10-03 12:08:00,
2013-10-03 07:13:00,58.5,56.5,29.84,SW,219,0.0,1.0,93,0.00,,,0.35,meteohub,2013-10-03 12:13:00,
2013-10-03 07:18:00,58.3,56.3,29.84,SW,218,0.0,1.0,93,0.00,,,0.35,meteohub,2013-10-03 12:18:00,
2013-10-03 07:23:00,58.3,56.3,29.84,SW,219,0.0,1.0,93,0.00,,,0.35,meteohub,2013-10-03 12:23:00,
2013-10-03 07:28:00,58.3,56.3,29.84,SW,219,0.0,0.0,93,0.00,,,0.35,meteohub,2013-10-03 12:28:00,
2013-10-03 07:33:00,58.3,55.9,29.84,SW,218,0.0,0.0,92,0.00,,,0.35,meteohub,2013-10-03 12:33:00,
2013-10-03 07:39:00,58.3,55.9,29.83,SW,219,0.0,0.0,92,0.00,,,0.35,meteohub,2013-10-03 12:39:00,
2013-10-03 07:44:00,58.3,55.9,29.84,SW,218,0.0,0.0,92,0.00,,,0.35,meteohub,2013-10-03 12:44:00,
2013-10-03 07:49:00,58.3,55.9,29.84,SW,218,0.0,0.0,92,0.00,,,0.35,meteohub,2013-10-03 12:49:00,
2013-10-03 07:54:00,58.3,56.3,29.84,SW,219,0.0,0.0,93,0.00,,,0.35,meteohub,2013-10-03 12:54:00,
2013-10-03 07:59:00,58.3,56.3,29.84,SW,218,0.0,0.0,93,0.00,,,0.35,meteohub,2013-10-03 12:59:00,
2013-10-03 08:04:00,58.3,56.3,29.84,SW,219,0.0,0.0,93,0.00,,,0.35,meteohub,2013-10-03 13:04:00,
2013-10-03 08:09:00,58.3,56.3,29.84,SW,219,0.0,0.0,93,0.00,,,0.35,meteohub,2013-10-03 13:09:00,
2013-10-03 08:14:00,58.3,56.3,29.83,SW,218,0.0,0.0,93,0.00,,,0.35,meteohub,2013-10-03 13:14:00,
2013-10-03 08:19:00,58.3,56.3,29.83,SW,219,0.0,0.0,93,0.00,,,0.35,meteohub,2013-10-03 13:19:00,
2013-10-03 08:24:00,58.3,56.3,29.83,SW,219,0.0,0.0,93,0.00,,,0.35,meteohub,2013-10-03 13:24:00,
2013-10-03 08:29:00,58.3,56.3,29.83,SW,217,0.0,0.0,93,0.00,,,0.35,meteohub,2013-10-03 13:29:00,
2013-10-03 08:34:00,58.3,56.3,29.83,SW,218,0.0,1.0,93,0.00,,,0.35,meteohub,2013-10-03 13:34:00,
2013-10-03 08:39:00,58.1,56.1,29.83,SW,218,0.0,1.0,93,0.00,,,0.35,meteohub,2013-10-03 13:39:00,
2013-10-03 08:44:00,58.1,56.1,29.83,SW,218,0.0,1.0,93,0.00,,,0.35,meteohub,2013-10-03 13:44:00,
2013-10-03 08:49:00,58.1,56.1,29.83,SW,218,0.0,0.0,93,0.00,,,0.35,meteohub,2013-10-03 13:49:00,
2013-10-03 08:54:00,58.1,56.1,29.83,SW,218,0.0,0.0,93,0.00,,,0.35,meteohub,2013-10-03 13:54:00,
2013-10-03 09:00:00,58.1,56.1,29.83,SW,218,0.0,0.0,93,0.00,,,0.35,meteohub,2013-10-03 14:00:00,
2013-10-03 09:05:00,58.1,56.1,29.84,SW,218,0.0,0.0,93,0.00,,,0.35,meteohub,2013-10-03 14:05:00,
2013-10-03 09:10:00,58.1,56.1,29.84,SW,218,0.0,0.0,93,0.00,,,0.35,meteohub,2013-10-03 14:10:00,
2013-10-03 09:15:00,58.3,56.3,29.84,SW,218,0.0,0.0,93,0.00,,,0.35,meteohub,2013-10-03 14:15:00,
2013-10-03 09:20:00,58.3,56.3,29.84,SW,218,0.0,0.0,93,0.00,,,0.35,meteohub,2013-10-03 14:20:00,
2013-10-03 09:25:00,58.1,56.1,29.84,SW,218,0.0,0.0,93,0.00,,,0.35,meteohub,2013-10-03 14:25:00,
2013-10-03 09:30:00,58.1,56.1,29.84,SW,218,0.0,0.0,93,0.00,,,0.35,meteohub,2013-10-03 14:30:00,
2013-10-03 09:35:00,58.1,56.1,29.83,SW,218,0.0,1.0,93,0.00,,,0.35,meteohub,2013-10-03 14:35:00,
2013-10-03 09:40:00,58.1,56.1,29.83,SW,218,0.0,1.0,93,0.00,,,0.35,meteohub,2013-10-03 14:40:00,
2013-10-03 09:45:00,58.1,56.1,29.83,SW,217,0.0,0.0,93,0.00,,,0.35,meteohub,2013-10-03 14:45:00,
2013-10-03 09:50:00,58.3,56.3,29.83,SW,217,0.0,1.0,93,0.00,,,0.35,meteohub,2013-10-03 14:50:00,
2013-10-03 09:55:00,58.1,56.1,29.83,SW,217,0.0,1.0,93,0.00,,,0.35,meteohub,2013-10-03 14:55:00,
2013-10-03 10:00:00,58.3,56.3,29.84,SW,217,0.0,1.0,93,0.00,,,0.35,meteohub,2013-10-03 15:00:00,
2013-10-03 10:05:00,58.3,56.3,29.84,SW,217,0.0,1.0,93,0.00,,,0.35,meteohub,2013-10-03 15:05:00,
2013-10-03 10:10:00,58.3,56.3,29.84,SW,217,0.0,0.0,93,0.01,,,0.35,meteohub,2013-10-03 15:10:00,
2013-10-03 10:15:00,58.3,56.3,29.84,SW,217,0.0,1.0,93,0.01,,,0.35,meteohub,2013-10-03 15:15:00,
2013-10-03 10:21:00,58.3,56.3,29.84,SW,217,0.0,1.0,93,0.01,,,0.35,meteohub,2013-10-03 15:21:00,
2013-10-03 10:26:00,58.3,56.3,29.85,SW,217,0.0,1.0,93,0.01,,,0.35,meteohub,2013-10-03 15:26:00,
2013-10-03 10:31:00,58.3,56.3,29.85,SW,217,0.0,0.0,93,0.01,,,0.35,meteohub,2013-10-03 15:31:00,
2013-10-03 10:36:00,58.1,56.1,29.84,SW,217,0.0,0.0,93,0.01,,,0.35,meteohub,2013-10-03 15:36:00,
2013-10-03 10:41:00,58.1,56.1,29.85,SW,217,0.0,0.0,93,0.01,,,0.35,meteohub,2013-10-03 15:41:00,
2013-10-03 10:46:00,58.1,56.1,29.84,SW,217,0.0,0.0,93,0.01,,,0.35,meteohub,2013-10-03 15:46:00,
2013-10-03 10:51:00,58.1,56.1,29.83,SW,217,0.0,0.0,93,0.02,,,0.37,meteohub,2013-10-03 15:51:00,
2013-10-03 10:56:00,58.3,56.3,29.83,SW,217,0.0,0.0,93,0.02,,,0.37,meteohub,2013-10-03 15:56:00,
2013-10-03 11:01:00,58.3,56.3,29.83,SW,217,0.0,0.0,93,0.02,,,0.37,meteohub,2013-10-03 16:01:00,
2013-10-03 11:06:00,58.3,56.3,29.83,SW,217,0.0,0.0,93,0.02,,,0.38,meteohub,2013-10-03 16:06:00,
2013-10-03 11:11:00,58.3,56.3,29.83,SW,217,0.0,0.0,93,0.03,,,0.39,meteohub,2013-10-03 16:11:00,
2013-10-03 11:16:00,58.3,56.3,29.83,SW,217,0.0,0.0,93,0.05,,,0.41,meteohub,2013-10-03 16:16:00,
2013-10-03 11:21:00,58.3,56.3,29.84,SW,217,0.0,0.0,93,0.05,,,0.41,meteohub,2013-10-03 16:21:00,
2013-10-03 11:26:00,58.3,56.3,29.84,SW,217,0.0,0.0,93,0.05,,,0.41,meteohub,2013-10-03 16:26:00,
2013-10-03 11:32:00,58.3,56.3,29.85,SW,220,0.0,2.0,93,0.06,,,0.42,meteohub,2013-10-03 16:32:00,
2013-10-03 11:37:00,58.3,56.3,29.85,SW,220,0.0,2.0,93,0.06,,,0.42,meteohub,2013-10-03 16:37:00,
2013-10-03 11:42:00,58.3,56.3,29.85,SW,219,0.0,2.0,93,0.06,,,0.42,meteohub,2013-10-03 16:42:00,
2013-10-03 11:47:00,58.3,56.3,29.85,SW,220,0.0,0.0,93,0.07,,,0.43,meteohub,2013-10-03 16:47:00,
2013-10-03 11:52:00,58.3,56.3,29.85,SW,219,0.0,0.0,93,0.06,,,0.43,meteohub,2013-10-03 16:52:00,
2013-10-03 11:57:00,58.3,56.3,29.84,SW,219,0.0,0.0,93,0.07,,,0.44,meteohub,2013-10-03 16:57:00,
2013-10-03 12:02:00,58.3,56.3,29.84,SW,219,0.0,0.0,93,0.08,,,0.44,meteohub,2013-10-03 17:02:00,
2013-10-03 12:07:00,58.3,56.3,29.84,SW,219,0.0,0.0,93,0.07,,,0.44,meteohub,2013-10-03 17:07:00,
2013-10-03 12:12:00,58.5,56.5,29.83,SW,219,0.0,1.0,93,0.05,,,0.44,meteohub,2013-10-03 17:12:00,
2013-10-03 12:17:00,58.5,56.5,29.83,SW,219,0.0,1.0,93,0.04,,,0.44,meteohub,2013-10-03 17:17:00,
2013-10-03 12:22:00,58.5,56.5,29.83,SW,219,0.0,1.0,93,0.04,,,0.44,meteohub,2013-10-03 17:22:00,
2013-10-03 12:27:00,58.6,56.7,29.83,SW,219,0.0,1.0,93,0.03,,,0.44,meteohub,2013-10-03 17:27:00,
2013-10-03 12:32:00,58.6,56.7,29.82,SW,219,0.0,1.0,93,0.03,,,0.44,meteohub,2013-10-03 17:32:00,
2013-10-03 12:37:00,58.6,56.7,29.82,SW,218,0.0,1.0,93,0.03,,,0.44,meteohub,2013-10-03 17:37:00,
2013-10-03 12:42:00,58.6,56.7,29.82,SW,218,0.0,1.0,93,0.03,,,0.44,meteohub,2013-10-03 17:42:00,
2013-10-03 12:47:00,58.8,56.8,29.81,SW,218,0.0,1.0,93,0.02,,,0.44,meteohub,2013-10-03 17:47:00,
2013-10-03 12:52:00,58.8,56.8,29.81,SW,217,0.0,1.0,93,0.01,,,0.44,meteohub,2013-10-03 17:52:00,
2013-10-03 12:57:00,58.8,56.8,29.82,WSW,253,0.0,1.0,93,0.00,,,0.44,meteohub,2013-10-03 17:57:00,
2013-10-03 13:02:00,59.0,57.0,29.83,WSW,253,0.0,3.0,93,0.00,,,0.44,meteohub,2013-10-03 18:02:00,
2013-10-03 13:07:00,59.0,57.0,29.83,WSW,253,0.0,3.0,93,0.00,,,0.44,meteohub,2013-10-03 18:07:00,
2013-10-03 13:12:00,59.0,57.0,29.82,WSW,253,0.0,2.0,93,0.00,,,0.44,meteohub,2013-10-03 18:12:00,
2013-10-03 13:17:00,59.0,57.0,29.82,WSW,253,0.0,1.0,93,0.00,,,0.44,meteohub,2013-10-03 18:17:00,
2013-10-03 13:22:00,59.0,57.0,29.82,SW,231,1.0,2.0,93,0.00,,,0.44,meteohub,2013-10-03 18:22:00,
2013-10-03 13:27:00,59.0,57.0,29.83,SW,231,0.0,3.0,93,0.00,,,0.44,meteohub,2013-10-03 18:27:00,
2013-10-03 13:32:00,59.0,57.0,29.83,SW,229,0.0,3.0,93,0.00,,,0.44,meteohub,2013-10-03 18:32:00,
2013-10-03 13:37:00,59.0,57.0,29.83,SW,229,0.0,1.0,93,0.00,,,0.44,meteohub,2013-10-03 18:37:00,
2013-10-03 13:42:00,59.0,57.0,29.82,SW,229,0.0,1.0,93,0.00,,,0.44,meteohub,2013-10-03 18:42:00,
2013-10-03 13:47:00,59.0,57.0,29.82,SW,229,0.0,1.0,93,0.00,,,0.44,meteohub,2013-10-03 18:47:00,
2013-10-03 13:52:00,59.0,57.0,29.83,SW,229,0.0,1.0,93,0.00,,,0.44,meteohub,2013-10-03 18:52:00,
2013-10-03 13:57:00,59.2,57.2,29.83,SW,229,1.0,1.0,93,0.00,,,0.44,meteohub,2013-10-03 18:57:00,
2013-10-03 14:02:00,59.2,57.2,29.83,SW,223,0.0,2.0,93,0.00,,,0.44,meteohub,2013-10-03 19:02:00,
2013-10-03 14:07:00,59.2,57.2,29.82,SW,223,0.0,2.0,93,0.00,,,0.44,meteohub,2013-10-03 19:07:00,
2013-10-03 14:12:00,59.2,57.2,29.82,SW,222,0.0,2.0,93,0.00,,,0.44,meteohub,2013-10-03 19:12:00,
2013-10-03 14:17:00,59.2,57.2,29.82,SW,222,0.0,0.0,93,0.00,,,0.44,meteohub,2013-10-03 19:17:00,
2013-10-03 14:22:00,59.2,57.2,29.82,SW,223,0.0,0.0,93,0.00,,,0.44,meteohub,2013-10-03 19:22:00,
2013-10-03 14:27:00,59.2,57.4,29.82,SW,223,0.0,0.0,94,0.00,,,0.44,meteohub,2013-10-03 19:27:00,
2013-10-03 14:32:00,59.2,57.2,29.83,SW,222,0.0,1.0,93,0.00,,,0.44,meteohub,2013-10-03 19:32:00,
2013-10-03 14:37:00,59.2,57.2,29.82,SW,222,0.0,1.0,93,0.00,,,0.44,meteohub,2013-10-03 19:37:00,
2013-10-03 14:42:00,59.2,57.2,29.82,SW,222,0.0,1.0,93,0.00,,,0.44,meteohub,2013-10-03 19:42:00,
2013-10-03 14:47:00,59.2,57.2,29.83,SSE,168,0.0,2.0,93,0.00,,,0.44,meteohub,2013-10-03 19:47:00,
2013-10-03 14:52:00,59.2,57.2,29.83,East,101,0.0,3.0,93,0.00,,,0.44,meteohub,2013-10-03 19:52:00,
2013-10-03 14:57:00,59.2,57.2,29.83,East,101,0.0,3.0,93,0.00,,,0.44,meteohub,2013-10-03 19:57:00,
2013-10-03 15:02:00,59.2,57.2,29.83,East,101,0.0,3.0,93,0.00,,,0.44,meteohub,2013-10-03 20:02:00,
2013-10-03 15:07:00,59.2,57.2,29.83,East,101,0.0,1.0,93,0.00,,,0.44,meteohub,2013-10-03 20:07:00,
2013-10-03 15:12:00,59.2,57.2,29.83,East,101,0.0,1.0,93,0.00,,,0.44,meteohub,2013-10-03 20:12:00,
2013-10-03 15:17:00,59.2,57.2,29.83,East,101,0.0,1.0,93,0.00,,,0.44,meteohub,2013-10-03 20:17:00,
2013-10-03 15:22:00,59.2,57.2,29.83,East,101,0.0,1.0,93,0.00,,,0.44,meteohub,2013-10-03 20:22:00,
2013-10-03 15:27:00,59.2,57.4,29.83,East,101,0.0,1.0,94,0.00,,,0.44,meteohub,2013-10-03 20:27:00,
2013-10-03 15:32:00,59.4,57.6,29.83,East,101,0.0,0.0,94,0.00,,,0.44,meteohub,2013-10-03 20:32:00,
2013-10-03 15:37:00,59.2,57.4,29.83,East,82,1.0,1.0,94,0.00,,,0.44,meteohub,2013-10-03 20:37:00,
2013-10-03 15:42:00,59.2,57.2,29.83,East,82,1.0,3.0,93,0.00,,,0.44,meteohub,2013-10-03 20:42:00,
2013-10-03 15:47:00,59.0,57.0,29.83,East,82,0.0,3.0,93,0.00,,,0.44,meteohub,2013-10-03 20:47:00,
2013-10-03 15:52:00,59.0,57.0,29.82,East,82,0.0,3.0,93,0.00,,,0.44,meteohub,2013-10-03 20:52:00,
2013-10-03 15:57:00,59.0,57.0,29.82,East,82,0.0,2.0,93,0.00,,,0.44,meteohub,2013-10-03 20:57:00,
2013-10-03 16:02:00,59.0,57.0,29.82,East,82,0.0,2.0,93,0.00,,,0.44,meteohub,2013-10-03 21:02:00,
2013-10-03 16:07:00,59.0,57.0,29.82,East,82,0.0,2.0,93,0.00,,,0.44,meteohub,2013-10-03 21:07:00,
2013-10-03 16:12:00,59.0,57.0,29.83,SE,131,0.0,2.0,93,0.00,,,0.44,meteohub,2013-10-03 21:12:00,
2013-10-03 16:17:00,59.0,57.0,29.83,SE,131,0.0,1.0,93,0.00,,,0.44,meteohub,2013-10-03 21:17:00,
2013-10-03 16:22:00,59.0,57.0,29.83,SE,130,0.0,1.0,93,0.00,,,0.44,meteohub,2013-10-03 21:22:00,
2013-10-03 16:27:00,59.0,57.0,29.83,SE,127,0.0,1.0,93,0.00,,,0.44,meteohub,2013-10-03 21:27:00,
2013-10-03 16:32:00,59.0,57.0,29.83,ENE,76,0.0,1.0,93,0.00,,,0.44,meteohub,2013-10-03 21:32:00,
2013-10-03 16:37:00,59.0,57.0,29.83,ENE,76,0.0,3.0,93,0.00,,,0.44,meteohub,2013-10-03 21:37:00,
2013-10-03 16:42:00,59.0,57.0,29.83,ENE,76,0.0,3.0,93,0.00,,,0.44,meteohub,2013-10-03 21:42:00,
2013-10-03 16:47:00,59.0,57.0,29.83,SSW,212,0.0,1.0,93,0.00,,,0.44,meteohub,2013-10-03 21:47:00,
2013-10-03 16:52:00,59.0,57.0,29.83,ESE,114,0.0,3.0,93,0.00,,,0.44,meteohub,2013-10-03 21:52:00,
2013-10-03 16:57:00,59.0,57.0,29.83,ENE,72,0.0,3.0,93,0.00,,,0.44,meteohub,2013-10-03 21:57:00,
2013-10-03 17:02:00,59.0,57.0,29.83,ENE,72,0.0,3.0,93,0.00,,,0.44,meteohub,2013-10-03 22:02:00,
2013-10-03 17:07:00,59.0,57.0,29.83,East,90,0.0,3.0,93,0.00,,,0.44,meteohub,2013-10-03 22:07:00,
2013-10-03 17:12:00,59.0,57.0,29.83,East,90,0.0,3.0,93,0.00,,,0.44,meteohub,2013-10-03 22:12:00,
2013-10-03 17:17:00,59.0,57.0,29.84,East,90,0.0,2.0,93,0.00,,,0.44,meteohub,2013-10-03 22:17:00,
2013-10-03 17:22:00,59.0,57.0,29.84,East,90,0.0,2.0,93,0.00,,,0.44,meteohub,2013-10-03 22:22:00,
2013-10-03 17:27:00,59.0,57.0,29.84,East,90,0.0,2.0,93,0.00,,,0.44,meteohub,2013-10-03 22:27:00,
2013-10-03 17:32:00,59.0,57.0,29.84,East,90,0.0,2.0,93,0.00,,,0.44,meteohub,2013-10-03 22:32:00,
2013-10-03 17:37:00,59.0,57.0,29.83,East,84,0.0,1.0,93,0.00,,,0.44,meteohub,2013-10-03 22:37:00,
2013-10-03 17:42:00,59.0,57.0,29.84,East,84,0.0,2.0,93,0.00,,,0.44,meteohub,2013-10-03 22:42:00,
2013-10-03 17:47:00,59.0,57.0,29.84,East,84,0.0,2.0,93,0.00,,,0.44,meteohub,2013-10-03 22:47:00,
2013-10-03 17:52:00,59.0,57.0,29.85,East,84,0.0,1.0,93,0.00,,,0.44,meteohub,2013-10-03 22:52:00,
2013-10-03 17:57:00,59.0,57.0,29.85,East,84,0.0,1.0,93,0.00,,,0.44,meteohub,2013-10-03 22:57:00,
2013-10-03 18:02:00,59.0,57.0,29.85,East,84,0.0,1.0,93,0.00,,,0.44,meteohub,2013-10-03 23:02:00,
2013-10-03 18:07:00,59.0,57.0,29.85,ENE,78,0.0,1.0,93,0.00,,,0.44,meteohub,2013-10-03 23:07:00,
2013-10-03 18:12:00,59.0,57.0,29.85,ENE,78,0.0,2.0,93,0.00,,,0.44,meteohub,2013-10-03 23:12:00,
2013-10-03 18:17:00,59.0,57.0,29.85,ENE,78,0.0,2.0,93,0.00,,,0.44,meteohub,2013-10-03 23:17:00,
2013-10-03 18:22:00,59.0,57.0,29.85,ENE,78,0.0,2.0,93,0.00,,,0.44,meteohub,2013-10-03 23:22:00,
2013-10-03 18:27:00,59.0,57.0,29.84,ENE,78,0.0,0.0,93,0.00,,,0.44,meteohub,2013-10-03 23:27:00,
2013-10-03 18:32:00,59.0,57.0,29.86,ENE,78,0.0,0.0,93,0.00,,,0.44,meteohub,2013-10-03 23:32:00,
2013-10-03 18:37:00,59.0,57.6,29.84,ENE,78,0.0,0.0,95,0.00,,,0.44,meteohub,2013-10-03 23:37:00,
2013-10-03 18:42:00,59.0,57.0,29.85,ENE,78,0.0,0.0,93,0.00,,,0.44,meteohub,2013-10-03 23:42:00,
2013-10-03 18:47:00,58.8,56.8,29.84,ENE,78,0.0,0.0,93,0.00,,,0.44,meteohub,2013-10-03 23:47:00,
2013-10-03 18:52:00,58.8,56.5,29.84,WNW,290,0.0,0.0,92,0.00,,,0.44,meteohub,2013-10-03 23:52:00,
2013-10-03 18:57:00,58.8,56.5,29.85,WSW,253,0.0,3.0,92,0.00,,,0.44,meteohub,2013-10-03 23:57:00,
2013-10-03 19:02:00,58.8,56.5,29.85,WSW,253,0.0,3.0,92,0.00,,,0.44,meteohub,2013-10-04 00:02:00,
2013-10-03 19:07:00,58.8,56.5,29.85,West,261,0.0,2.0,92,0.00,,,0.00,meteohub,2013-10-04 00:07:00,
2013-10-03 19:12:00,58.8,56.5,29.85,SW,218,0.0,3.0,92,0.00,,,0.00,meteohub,2013-10-04 00:12:00,
2013-10-03 19:17:00,58.8,56.5,29.85,SW,217,0.0,3.0,92,0.00,,,0.00,meteohub,2013-10-04 00:17:00,
2013-10-03 19:22:00,58.8,56.5,29.85,SW,219,0.0,3.0,92,0.00,,,0.00,meteohub,2013-10-04 00:22:00,
2013-10-03 19:27:00,58.6,56.3,29.85,SW,219,0.0,2.0,92,0.00,,,0.00,meteohub,2013-10-04 00:27:00,
2013-10-03 19:32:00,58.6,56.3,29.85,SW,218,0.0,2.0,92,0.00,,,0.00,meteohub,2013-10-04 00:32:00,
2013-10-03 19:37:00,58.6,56.3,29.85,SW,219,0.0,1.0,92,0.00,,,0.00,meteohub,2013-10-04 00:37:00,
2013-10-03 19:42:00,58.6,56.3,29.84,SW,215,0.0,2.0,92,0.00,,,0.00,meteohub,2013-10-04 00:42:00,
2013-10-03 19:47:00,58.6,56.3,29.84,SW,218,0.0,2.0,92,0.00,,,0.00,meteohub,2013-10-04 00:47:00,
2013-10-03 19:52:00,58.6,56.3,29.84,SW,218,0.0,3.0,92,0.00,,,0.00,meteohub,2013-10-04 00:52:00,
2013-10-03 19:57:00,58.6,56.3,29.85,SW,219,0.0,3.0,92,0.00,,,0.00,meteohub,2013-10-04 00:57:00,
2013-10-03 20:02:00,58.6,56.3,29.85,SW,219,0.0,0.0,92,0.00,,,0.00,meteohub,2013-10-04 01:02:00,
2013-10-03 20:07:00,58.6,56.3,29.84,WSW,248,0.0,3.0,92,0.00,,,0.00,meteohub,2013-10-04 01:07:00,
2013-10-03 20:12:00,58.6,56.3,29.84,WNW,288,0.0,3.0,92,0.00,,,0.00,meteohub,2013-10-04 01:12:00,
2013-10-03 20:17:00,58.6,56.3,29.84,West,259,0.0,3.0,92,0.00,,,0.00,meteohub,2013-10-04 01:17:00,
2013-10-03 20:22:00,58.6,56.3,29.84,West,259,0.0,3.0,92,0.00,,,0.00,meteohub,2013-10-04 01:22:00,
2013-10-03 20:27:00,58.6,56.3,29.84,SSW,213,0.0,3.0,92,0.00,,,0.00,meteohub,2013-10-04 01:27:00,
2013-10-03 20:32:00,58.6,56.3,29.85,SSW,213,0.0,3.0,92,0.00,,,0.00,meteohub,2013-10-04 01:32:00,
2013-10-03 20:37:00,58.6,56.3,29.86,SSW,213,0.0,3.0,92,0.00,,,0.00,meteohub,2013-10-04 01:37:00,
2013-10-03 20:42:00,58.6,56.3,29.86,SSW,213,0.0,3.0,92,0.00,,,0.00,meteohub,2013-10-04 01:42:00,
2013-10-03 20:47:00,58.6,56.3,29.86,SSW,213,0.0,1.0,92,0.00,,,0.00,meteohub,2013-10-04 01:47:00,
2013-10-03 20:52:00,58.6,56.3,29.86,SSW,213,0.0,0.0,92,0.00,,,0.00,meteohub,2013-10-04 01:52:00,
2013-10-03 20:57:00,58.6,56.3,29.87,SSW,213,0.0,0.0,92,0.00,,,0.00,meteohub,2013-10-04 01:57:00,
2013-10-03 21:02:00,58.8,56.5,29.87,SSW,213,0.0,0.0,92,0.00,,,0.00,meteohub,2013-10-04 02:02:00,
2013-10-03 21:07:00,58.8,56.5,29.86,SSW,213,0.0,0.0,92,0.00,,,0.00,meteohub,2013-10-04 02:07:00,
2013-10-03 21:12:00,58.8,56.5,29.86,SW,221,0.0,0.0,92,0.00,,,0.00,meteohub,2013-10-04 02:12:00,
2013-10-03 21:17:00,58.8,56.5,29.87,SW,221,0.0,0.0,92,0.00,,,0.00,meteohub,2013-10-04 02:17:00,
2013-10-03 21:22:00,58.6,56.3,29.87,SW,221,0.0,0.0,92,0.00,,,0.00,meteohub,2013-10-04 02:22:00,
2013-10-03 21:27:00,58.8,56.5,29.87,SW,221,0.0,0.0,92,0.00,,,0.00,meteohub,2013-10-04 02:27:00,
2013-10-03 21:32:00,58.8,56.5,29.87,SW,221,0.0,0.0,92,0.00,,,0.00,meteohub,2013-10-04 02:32:00,
2013-10-03 21:37:00,58.8,56.5,29.88,SW,221,0.0,0.0,92,0.00,,,0.00,meteohub,2013-10-04 02:37:00,
2013-10-03 21:42:00,58.8,56.5,29.88,SW,221,0.0,0.0,92,0.00,,,0.00,meteohub,2013-10-04 02:42:00,
2013-10-03 21:47:00,58.6,56.3,29.88,SW,221,0.0,1.0,92,0.00,,,0.00,meteohub,2013-10-04 02:47:00,
2013-10-03 21:52:00,58.6,56.3,29.89,SW,221,0.0,1.0,92,0.00,,,0.00,meteohub,2013-10-04 02:52:00,
2013-10-03 21:57:00,58.6,56.3,29.89,SW,221,0.0,1.0,92,0.00,,,0.00,meteohub,2013-10-04 02:57:00,
2013-10-03 22:02:00,58.6,56.3,29.89,SW,221,0.0,0.0,92,0.00,,,0.00,meteohub,2013-10-04 03:02:00,
2013-10-03 22:07:00,58.6,56.3,29.89,SW,221,0.0,0.0,92,0.00,,,0.00,meteohub,2013-10-04 03:07:00,
2013-10-03 22:12:00,58.6,56.3,29.89,SW,221,0.0,0.0,92,0.00,,,0.00,meteohub,2013-10-04 03:12:00,
2013-10-03 22:17:00,58.6,56.3,29.89,SW,221,0.0,0.0,92,0.00,,,0.00,meteohub,2013-10-04 03:17:00,
2013-10-03 22:22:00,58.6,56.3,29.89,SW,221,0.0,0.0,92,0.00,,,0.00,meteohub,2013-10-04 03:22:00,
2013-10-03 22:27:00,58.6,56.3,29.90,SW,221,0.0,0.0,92,0.00,,,0.00,meteohub,2013-10-04 03:27:00,
2013-10-03 22:32:00,58.6,56.3,29.90,SW,221,0.0,0.0,92,0.00,,,0.00,meteohub,2013-10-04 03:32:00,
2013-10-03 22:37:00,58.6,56.3,29.90,SW,221,0.0,0.0,92,0.00,,,0.00,meteohub,2013-10-04 03:37:00,
2013-10-03 22:42:00,58.6,56.3,29.90,SW,221,0.0,0.0,92,0.00,,,0.00,meteohub,2013-10-04 03:42:00,
2013-10-03 22:47:00,58.5,56.1,29.90,SW,221,0.0,0.0,92,0.00,,,0.00,meteohub,2013-10-04 03:47:00,
2013-10-03 22:52:00,58.5,56.1,29.91,SW,217,0.0,1.0,92,0.00,,,0.00,meteohub,2013-10-04 03:52:00,
2013-10-03 22:57:00,58.5,56.1,29.90,SW,217,0.0,1.0,92,0.00,,,0.00,meteohub,2013-10-04 03:57:00,
2013-10-03 23:32:00,57.7,55.4,29.91,East,92,0.0,2.0,92,0.00,,,0.00,meteohub,2013-10-04 04:32:00,
2013-10-03 23:33:00,57.7,55.4,29.91,East,92,0.0,2.0,92,0.00,,,0.00,meteohub,2013-10-04 04:33:00,
2013-10-03 23:34:00,57.6,55.2,29.91,East,92,0.0,2.0,92,0.00,,,0.00,meteohub,2013-10-04 04:34:00,
2013-10-03 23:35:00,57.6,55.2,29.91,East,92,0.0,2.0,92,0.00,,,0.00,meteohub,2013-10-04 04:35:00,
2013-10-03 23:38:00,57.6,55.2,29.91,East,92,0.0,2.0,92,0.00,,,0.00,meteohub,2013-10-04 04:38:00,
2013-10-03 23:43:00,57.6,55.2,29.91,East,92,0.0,2.0,92,0.00,,,0.00,meteohub,2013-10-04 04:43:00,
2013-10-03 23:44:00,57.6,55.2,29.91,East,92,0.0,2.0,92,0.00,,,0.00,meteohub,2013-10-04 04:44:00,
2013-10-03 23:46:00,57.4,55.0,29.91,East,92,0.0,1.0,92,0.00,,,0.00,meteohub,2013-10-04 04:46:00,
2013-10-03 23:47:00,57.4,55.0,29.91,East,92,0.0,1.0,92,0.00,,,0.00,meteohub,2013-10-04 04:47:00,
2013-10-03 23:54:00,57.4,55.0,29.91,East,92,0.0,1.0,92,0.00,,,0.00,meteohub,2013-10-04 04:54:00,
2013-10-03 23:59:00,57.2,54.9,29.91,East,92,0.0,1.0,92,0.00,,,0.00,meteohub,2013-10-04 04:59:00,